Weather in Foshchevatovo

Russia / Belgorod Oblast     50°25′28″N   38°03′45″E
temp.,
°C
wind,
m/s
gust,
m/s
humid.,
%
clouds,
%
prec.,
mm/h
press.,
hPa
HPBL,
m
11 may, tue
tue1100:00+9nne91893100 0.0 1014679
03:00+9n81894100 0.0 1013595
06:00+10nne91693100 0.8 1013962
09:00+8ene6119182 1.0 1016740
12:00+10ene71174100 0.1 10171292
15:00+10ene91473100 0.2 10181590
18:00+9ene10148082 0.2 10191249
21:00+7e91689100 0.4 10201425
12 may, wed
wed1200:00+7ene61290100 0.1 1021850
03:00+7e71682100 0.1 1021659
06:00+7ene61583100 0.0 1021646
09:00+10e51181100 0.4 1020862
12:00+11ese71178100 0.4 10181424
15:00+11ese5986100 2.9 1017743
18:00+10se28877 2.0 1016323
21:00+8ese41195100 2.3 1017282
13 may, thu
thu1300:00+9se379292 0.2 1017175
03:00+8ese3593100 0.2 1017123
06:00+9e3692100 0.1 1017157
09:00+12ese4781100 0.1 1017382
12:00+17se4668100 0.0 10161067
15:00+20sse5759100 0.4 10151715
18:00+17ese3475100 0.6 101568
21:00+15ese4984100 0.6 1015138
14 may, fri
fri1400:00+14e41083100 0.0 1014194
03:00+13ese499187 0.0 1014146
06:00+13ese4119187 0.0 1014226
09:00+19se611765 0.0 1013554
12:00+23sse796232 0.0 10131132
15:00+25sse685872 0.0 10121317
18:00+23s377295 0.0 1012279
21:00+19ese3380100 0.0 101122
15 may, sat
sat1500:00+18se378776 0.3 1010122
03:00+16ssw41297100 3.7 1011276
06:00+16nne4590100 0.2 100981
09:00+20s57720 0.2 1011641
12:00+23s57606 0.0 10111248
15:00+24ssw5859100 0.1 10101787
18:00+20sw597397 0.9 1011388
21:00+16wsw22871 0.9 101214